Temp
88 90 83 83 83 83 83 83 83 82 83 83 83 83 83 83 83 83 83 83 83 83 84 84 84 84 84 84 83 83 83 83 83 84 84 83 83 83 82 83 84 91 82
93 91 82 83 83 82 83 83 83 83 83 83 83 83 83 83 83 83 83 84 84 84 83 83 83 83 84 84 83 83 83 83 83 84 84 84 84 82 82 82 84 86 83
94 92 89 82 83 83 82 82 83 83 83 83 83 83 83 84 84 84 83 84 84 83 84 84 83 83 83 84 83 83 83 83 83 84 86 92 90 83 83 83 83 82 82
97 96 93 81 83 83 83 83 83 83 83 83 83 83 83 83 84 84 84 84 84 84 84 85 84 84 84 84 83 83 83 83 84 86 87 89 91 84 83 83 82 82 82
95 96 89 82 83 83 83 83 83 83 83 83 83 84 84 84 84 84 84 84 84 84 84 83 83 84 84 84 83 83 82 83 86 92 92 85 88 83 83 83 84 83 83
96 97 86 83 83 83 83 83 83 83 83 83 83 84 84 84 82 84 84 85 84 84 84 84 84 84 84 84 83 83 82 84 89 93 92 90 87 83 83 83 83 83 82
97 96 93 83 83 83 83 83 83 83 84 83 83 83 84 84 83 84 84 84 84 85 85 85 84 84 84 83 83 82 82 84 92 93 92 91 87 82 82 82 82 82 81
97 98 93 83 83 83 83 83 83 83 83 83 84 84 83 84 84 84 84 85 85 85 85 85 84 84 83 83 83 82 82 84 92 91 91 90 82 82 83 82 82 82 82
98 94 92 93 86 83 83 83 83 83 83 83 83 84 84 84 85 85 85 85 85 85 85 85 84 84 83 83 83 82 81 82 92 93 94 92 81 82 82 82 82 82 81
96 95 92 89 91 88 91 83 83 83 83 84 84 84 84 84 84 84 83 85 85 85 85 85 84 84 83 83 82 82 82 83 93 94 93 88 81 82 82 82 81 81 81
91 94 95 94 91 89 89 87 84 83 83 83 84 84 85 83 90 91 85 85 85 85 85 84 84 84 84 83 83 82 82 96 96 95 93 80 82 83 82 81 81 81 81
88 93 91 93 88 92 94 87 87 92 94 93 92 90 93 92 83 91 86 83 84 84 84 83 82 83 86 98 93 85 99 94 95 95 91 80 82 82 82 81 81 81 81
91 92 92 91 91 93 90 93 93 93 92 91 90 92 92 93 93 94 92 92 92 87 95 93 93 97 93 97 96 97 95 97 98 97 86 80 81 82 82 81 81 81 81
89 89 92 92 90 90 92 93 93 93 93 93 91 90 89 92 91 91 92 91 91 95 92 93 96 93 95 93 96 95 96 97 98 98 87 80 80 81 82 82 82 82 81
90 91 91 90 87 87 89 92 93 91 94 93 92 91 93 92 89 92 90 93 92 96 95 94 94 94 93 95 96 95 96 95 95 98 95 81 80 80 81 82 82 82 82
90 90 90 90 87 89 88 88 90 93 92 94 94 91 90 92 90 91 91 93 93 96 96 95 92 95 96 96 94 95 95 96 93 96 97 91 81 81 81 81 82 82 82
91 90 89 89 90 88 87 88 92 93 95 93 93 90 90 91 88 89 91 93 93 92 92 93 94 95 97 97 93 95 97 95 96 94 98 99 90 80 82 82 82 82 82
91 88 89 93 91 90 89 87 93 93 94 94 94 93 90 89 88 89 92 93 93 94 96 97 97 96 96 97 95 98 97 98 95 95 98 99 99 102 84 83 82 82 82
90 88 89 90 90 89 88 91 92 90 93 94 94 94 89 89 88 92 93 92 90 94 96 97 96 97 94 97 98 98 98 98 97 100 96 97 97 100 101 83 81 81 82
91 90 89 91 88 88 89 89 92 92 93 94 94 94 90 90 89 90 92 91 93 94 94 95 92 95 95 95 99 97 99 99 99 98 99 101 99 98 101 97 98 96 82
91 89 88 87 86 88 88 89 90 90 91 92 93 90 89 90 89 88 93 91 92 93 91 92 94 91 95 95 95 95 96 97 98 100 102 103 99 102 101 103 99 101 99
90 89 87 87 86 86 90 90 92 91 92 92 92 89 89 90 89 89 90 91 91 92 89 90 89 95 96 94 92 94 90 93 99 101 101 102 100 104 104 101 100 98 98
90 89 88 87 86 85 90 90 88 85 85 85 87 90 91 90 90 87 89 89 89 92 93 91 91 89 92 93 90 92 89 89 94 98 97 100 98 102 103 102 102 101 99
92 91 89 88 87 87 86 88 86 85 81 89 88 91 91 89 90 90 89 89 88 94 89 91 93 92 90 91 95 95 90 89 92 90 97 98 100 102 100 102 106 103 100
93 92 91 88 86 88 85 85 84 87 90 91 90 87 87 87 90 91 89 89 88 93 89 90 90 89 94 93 94 95 90 95 92 93 91 94 98 102 103 104 104 104 102
95 93 91 87 85 86 86 86 84 85 86 86 84 84 89 91 91 89 90 88 89 90 89 91 90 89 89 90 93 94 93 92 92 94 93 92 94 97 103 103 102 102 102
MSLP
1016.11 1016.53 1017.29 1017.43 1017.43 1017.49 1017.53 1017.60 1017.65 1017.80 1017.77 1017.75 1017.71 1017.75 1017.83 1017.89 1017.99 1017.97 1018.07 1018.19 1018.23 1018.30 1018.36 1018.39 1018.45 1018.47 1018.49 1018.54 1018.61 1018.75 1018.81 1018.87 1018.71 1018.59 1018.76 1018.85 1018.82 1018.81 1018.85 1018.94 1018.27 1018.52 1019.21
1015.68 1016.44 1017.37 1017.56 1017.65 1017.75 1017.82 1017.92 1017.97 1017.93 1018.03 1018.01 1018.01 1018.13 1018.18 1018.29 1018.33 1018.46 1018.49 1018.48 1018.58 1018.69 1018.79 1018.88 1018.95 1019.00 1018.97 1018.93 1018.95 1019.15 1019.20 1019.11 1018.94 1019.00 1018.93 1019.04 1019.06 1019.29 1019.20 1019.05 1018.98 1019.31 1019.35
1015.57 1016.52 1017.22 1017.71 1017.84 1017.96 1018.05 1018.15 1018.21 1018.28 1018.34 1018.37 1018.42 1018.46 1018.55 1018.58 1018.68 1018.76 1018.86 1018.87 1018.97 1019.12 1019.12 1019.26 1019.33 1019.27 1019.27 1019.30 1019.36 1019.48 1019.52 1019.42 1019.20 1019.01 1018.74 1018.39 1019.09 1019.53 1019.65 1019.59 1019.77 1019.77 1019.71
1015.35 1016.07 1016.89 1017.95 1018.05 1018.17 1018.22 1018.29 1018.34 1018.45 1018.53 1018.62 1018.66 1018.78 1018.82 1018.88 1018.97 1018.89 1019.09 1019.13 1019.39 1019.37 1019.51 1019.48 1019.56 1019.57 1019.65 1019.74 1019.79 1019.80 1019.81 1019.69 1019.40 1018.93 1018.79 1018.74 1019.07 1019.91 1019.95 1019.97 1019.99 1019.88 1019.97
1015.69 1015.90 1017.55 1018.15 1018.29 1018.38 1018.42 1018.47 1018.56 1018.59 1018.69 1018.89 1018.95 1019.05 1019.02 1019.07 1019.11 1019.23 1019.35 1019.47 1019.57 1019.58 1019.68 1019.85 1019.93 1019.85 1020.02 1019.99 1020.10 1020.13 1020.16 1019.97 1019.40 1018.72 1019.02 1019.87 1019.77 1020.35 1020.31 1020.21 1019.94 1020.12 1020.23
1015.83 1016.05 1018.05 1018.31 1018.40 1018.55 1018.59 1018.60 1018.67 1018.69 1018.84 1018.95 1019.09 1019.22 1019.19 1019.30 1019.51 1019.50 1019.62 1019.61 1019.92 1019.86 1019.99 1020.10 1020.09 1020.17 1020.17 1020.33 1020.43 1020.48 1020.46 1019.99 1019.29 1019.33 1019.49 1019.90 1020.18 1020.74 1020.58 1020.53 1020.46 1020.56 1020.73
1015.77 1016.76 1017.65 1018.52 1018.69 1018.69 1018.82 1018.90 1018.93 1018.99 1019.01 1019.15 1019.28 1019.41 1019.40 1019.51 1019.65 1019.95 1019.97 1020.10 1020.03 1020.17 1020.16 1020.28 1020.41 1020.46 1020.55 1020.59 1020.63 1020.73 1020.68 1020.31 1019.70 1019.48 1019.75 1020.09 1020.83 1021.07 1021.06 1020.96 1020.98 1021.08 1021.15
1016.05 1016.37 1017.62 1018.77 1018.90 1019.05 1019.11 1019.18 1019.24 1019.30 1019.29 1019.50 1019.64 1019.71 1019.73 1020.01 1020.25 1020.33 1020.37 1020.38 1020.48 1020.48 1020.52 1020.56 1020.67 1020.73 1020.84 1020.93 1020.96 1021.02 1020.99 1020.47 1019.89 1020.11 1020.27 1020.64 1021.49 1021.43 1021.35 1021.41 1021.44 1021.43 1021.51
1016.04 1016.72 1017.38 1017.83 1019.02 1019.19 1019.28 1019.35 1019.47 1019.54 1019.63 1019.71 1019.86 1020.18 1020.32 1020.35 1020.55 1020.62 1020.60 1020.62 1020.73 1020.75 1020.80 1020.87 1020.92 1021.05 1021.13 1021.19 1021.23 1021.31 1021.22 1020.87 1020.31 1019.98 1020.03 1020.85 1021.87 1021.76 1021.79 1021.84 1021.79 1021.76 1021.77
1016.35 1016.98 1017.38 1018.29 1018.29 1018.79 1018.85 1019.60 1019.76 1019.91 1019.91 1019.96 1020.20 1020.37 1020.58 1020.71 1020.81 1020.93 1020.84 1020.89 1020.90 1020.97 1021.04 1021.13 1021.09 1021.18 1021.24 1021.34 1021.43 1021.41 1021.16 1020.78 1020.41 1020.09 1020.48 1021.68 1022.03 1021.99 1022.03 1022.09 1022.07 1022.07 1022.04
1017.05 1017.08 1017.14 1017.70 1018.47 1018.93 1019.02 1019.66 1019.91 1020.14 1020.19 1020.27 1020.46 1020.66 1020.59 1020.84 1020.67 1020.48 1021.09 1021.14 1021.17 1021.20 1021.24 1021.28 1021.33 1021.35 1021.26 1021.35 1021.51 1021.35 1021.01 1020.26 1020.28 1020.39 1020.78 1022.33 1022.29 1022.27 1022.28 1022.33 1022.31 1022.26 1022.21
1017.12 1017.13 1018.15 1017.83 1018.90 1018.46 1018.67 1019.71 1019.83 1019.47 1019.24 1019.71 1019.91 1020.17 1019.73 1020.25 1020.83 1020.59 1021.28 1021.53 1021.42 1021.44 1021.51 1021.55 1021.53 1021.41 1020.84 1019.77 1020.49 1020.72 1020.00 1020.67 1020.58 1020.58 1021.52 1022.49 1022.49 1022.46 1022.45 1022.43 1022.38 1022.32 1022.26
1017.12 1017.51 1017.91 1018.37 1018.61 1018.46 1019.09 1018.96 1019.03 1019.31 1019.77 1020.29 1020.35 1019.93 1020.26 1020.29 1020.35 1020.48 1020.91 1020.97 1021.07 1021.35 1020.57 1020.83 1020.69 1020.31 1020.67 1020.15 1020.15 1020.19 1020.58 1020.29 1020.33 1020.53 1022.05 1022.56 1022.57 1022.49 1022.45 1022.42 1022.35 1022.29 1022.27
1017.24 1017.75 1017.92 1018.31 1018.77 1018.89 1019.07 1018.85 1019.19 1019.35 1019.59 1019.76 1020.43 1020.63 1020.65 1020.37 1020.53 1020.64 1020.69 1021.00 1021.03 1020.82 1020.97 1020.85 1020.32 1020.78 1020.57 1020.61 1020.20 1020.30 1020.24 1020.16 1020.27 1020.53 1021.99 1022.49 1022.57 1022.49 1022.41 1022.39 1022.31 1022.24 1022.15
1017.15 1017.62 1018.08 1018.60 1019.19 1019.45 1019.23 1019.19 1019.32 1019.71 1019.26 1020.02 1020.31 1020.64 1020.38 1020.37 1020.79 1020.73 1021.10 1020.82 1020.93 1020.90 1020.79 1020.75 1020.66 1020.54 1020.59 1020.39 1020.33 1020.41 1020.28 1020.63 1020.66 1020.55 1021.07 1022.36 1022.41 1022.38 1022.35 1022.28 1022.21 1022.10 1022.01
1017.12 1017.70 1018.32 1018.74 1019.27 1019.38 1019.51 1019.73 1019.75 1019.65 1020.05 1019.88 1020.17 1020.85 1020.96 1020.66 1020.93 1020.98 1021.07 1020.86 1020.98 1020.92 1020.89 1020.82 1020.87 1020.39 1020.14 1020.16 1020.50 1020.38 1020.38 1020.49 1020.93 1020.81 1020.77 1021.64 1022.17 1022.16 1022.17 1022.18 1022.10 1022.03 1021.95
1017.04 1017.87 1018.45 1018.75 1019.09 1019.48 1019.80 1019.89 1019.51 1019.58 1019.74 1019.95 1020.34 1020.99 1021.12 1021.02 1021.35 1021.25 1021.01 1020.89 1020.93 1021.25 1021.18 1020.96 1020.73 1020.54 1020.06 1019.97 1020.43 1020.33 1020.28 1020.66 1020.71 1020.96 1020.66 1020.51 1021.34 1021.79 1021.89 1021.99 1022.00 1021.96 1021.82
1017.03 1017.93 1018.47 1018.35 1018.92 1019.38 1019.63 1020.15 1019.55 1019.74 1019.77 1020.01 1020.31 1020.75 1021.14 1021.40 1021.50 1021.36 1020.95 1020.93 1021.19 1021.11 1020.87 1020.59 1020.18 1020.19 1020.15 1019.97 1020.15 1020.03 1020.14 1020.38 1020.75 1020.89 1020.67 1020.52 1020.54 1020.25 1021.45 1021.64 1021.78 1021.79 1021.63
1017.31 1017.98 1018.39 1018.65 1018.98 1019.40 1019.87 1019.68 1019.82 1020.29 1019.86 1020.03 1020.29 1020.45 1021.15 1021.33 1021.53 1021.02 1020.93 1021.21 1021.45 1021.03 1020.73 1020.29 1020.45 1020.22 1020.23 1019.96 1019.73 1019.87 1019.97 1020.04 1020.34 1020.12 1020.65 1020.71 1020.64 1020.49 1020.37 1021.23 1021.43 1021.38 1021.35
1017.37 1018.01 1018.44 1018.73 1019.23 1019.53 1019.79 1020.01 1019.65 1019.84 1020.03 1020.19 1020.25 1020.45 1021.22 1021.29 1021.43 1021.30 1021.17 1021.32 1021.14 1020.79 1020.71 1020.57 1020.75 1020.61 1020.37 1020.32 1019.51 1019.63 1019.77 1019.82 1020.06 1020.12 1020.17 1020.14 1020.39 1020.53 1020.25 1020.61 1020.45 1020.17 1020.80
1017.25 1017.89 1018.45 1019.02 1019.51 1019.69 1019.84 1019.62 1019.65 1019.58 1019.97 1020.15 1020.32 1021.06 1021.29 1021.20 1021.45 1021.52 1020.99 1021.27 1021.09 1020.90 1021.13 1021.09 1020.73 1020.76 1020.16 1020.29 1019.55 1019.47 1019.63 1019.81 1019.83 1019.83 1019.82 1019.85 1020.05 1020.02 1020.16 1020.03 1020.19 1019.89 1019.68
1016.96 1017.72 1018.63 1019.00 1019.55 1019.77 1019.68 1019.54 1019.49 1019.65 1020.03 1020.21 1020.41 1021.09 1021.36 1021.24 1021.40 1021.47 1021.39 1021.24 1020.95 1021.11 1021.59 1021.39 1021.17 1020.30 1020.24 1020.52 1019.75 1019.45 1018.99 1019.37 1019.17 1019.33 1019.72 1019.77 1019.88 1019.69 1019.73 1019.84 1020.03 1020.00 1019.88
1016.59 1017.48 1018.15 1018.89 1019.49 1019.93 1019.59 1019.82 1020.16 1020.42 1020.70 1020.88 1020.95 1020.98 1020.97 1021.31 1021.25 1021.52 1021.54 1021.37 1021.53 1020.92 1021.02 1021.38 1021.13 1020.94 1020.13 1020.55 1020.63 1019.76 1019.07 1018.61 1019.01 1019.30 1019.62 1019.48 1019.83 1019.57 1019.60 1019.61 1019.61 1019.65 1019.73
1016.06 1017.13 1017.97 1018.63 1019.35 1019.77 1020.03 1019.69 1019.99 1020.28 1020.54 1020.19 1020.74 1020.58 1020.59 1021.13 1021.15 1021.27 1021.40 1021.43 1021.59 1020.93 1021.37 1021.32 1021.01 1021.11 1020.74 1020.31 1020.30 1020.42 1020.61 1020.34 1018.90 1018.65 1019.11 1019.28 1019.42 1019.25 1019.60 1019.19 1019.00 1019.19 1019.43
1015.64 1016.50 1017.52 1018.45 1019.27 1019.41 1019.97 1020.13 1020.33 1019.83 1019.89 1020.14 1020.52 1020.78 1021.00 1021.14 1021.10 1021.15 1021.40 1021.45 1021.41 1021.04 1021.50 1021.46 1021.53 1021.45 1021.02 1020.57 1020.31 1020.33 1020.50 1020.10 1020.17 1019.04 1018.52 1018.83 1019.17 1019.19 1019.17 1018.97 1018.97 1018.87 1019.05
1015.25 1016.11 1017.02 1018.13 1019.04 1019.45 1019.90 1020.21 1020.30 1020.07 1020.14 1020.35 1020.87 1020.78 1020.58 1020.66 1020.62 1021.09 1021.23 1021.54 1021.50 1021.40 1021.53 1021.41 1021.56 1021.69 1021.55 1021.36 1020.92 1020.61 1020.25 1019.84 1019.70 1019.27 1018.93 1019.13 1018.88 1019.25 1019.03 1018.82 1018.82 1018.83 1018.93
Wind_Speed
8 11 7 8 8 10 10 10 10 10 11 11 12 12 13 13 15 13 14 15 16 16 15 15 14 15 15 15 15 14 15 15 14 15 14 15 15 13 11 9 13 17 13
13 12 8 9 9 10 10 9 9 11 11 11 12 12 12 13 14 12 15 15 15 15 15 16 16 15 14 15 15 16 15 15 14 14 15 16 16 15 15 17 17 15 15
14 14 12 10 10 9 10 10 9 10 10 10 11 11 11 12 13 12 16 14 16 15 16 17 15 15 14 15 17 14 15 14 12 10 8 11 15 15 16 17 15 16 15
14 13 13 10 10 9 9 9 9 8 9 10 9 10 10 11 12 14 14 14 14 15 15 16 16 15 15 14 14 14 14 13 8 3 9 11 15 15 15 15 14 16 16
12 12 14 11 9 9 9 8 8 9 9 9 10 10 9 11 13 14 13 14 15 14 14 14 12 13 13 13 13 13 13 9 4 9 12 11 12 13 14 13 16 18 17
13 15 13 11 10 9 8 9 8 8 8 9 10 10 11 15 9 13 12 15 15 13 11 12 12 12 13 13 12 12 11 6 4 11 10 12 13 13 14 15 16 15 15
12 13 14 9 11 11 11 9 9 8 10 10 10 10 12 13 13 13 13 13 14 14 12 12 12 13 12 12 12 12 10 8 9 10 11 12 12 12 16 17 14 15 14
11 11 14 10 10 11 12 11 11 10 10 10 11 11 14 14 13 14 12 13 13 14 15 14 13 12 11 11 11 10 8 8 9 11 11 11 10 12 14 15 14 13 12
10 11 9 14 11 13 12 12 11 11 10 11 12 13 14 13 12 13 12 12 12 13 13 12 10 11 11 11 10 10 8 4 9 6 11 9 8 12 12 12 12 11 10
8 12 5 10 6 8 13 11 11 12 12 14 14 15 14 14 13 12 12 11 12 11 10 11 10 9 9 9 9 7 4 6 9 6 10 8 8 9 10 11 9 9 9
7 8 7 11 8 10 9 10 12 12 14 15 13 13 15 7 9 9 12 10 10 9 9 9 9 8 8 9 7 2 8 6 7 5 9 7 9 8 8 8 7 7 7
9 8 8 9 9 6 8 8 6 9 8 9 9 9 7 10 4 12 11 7 7 7 8 7 6 3 10 4 7 11 5 6 5 4 8 8 7 7 6 6 5 5 5
10 7 10 8 6 7 7 6 5 6 7 7 7 7 8 7 6 6 6 6 6 5 4 5 5 1 5 4 5 6 6 4 5 5 9 5 6 5 4 3 3 4 5
10 8 9 9 7 7 5 5 6 6 6 6 8 8 6 5 5 5 4 6 4 3 3 2 4 3 2 3 7 6 7 6 5 4 9 5 3 3 3 3 3 4 5
11 10 10 9 7 7 4 6 7 7 6 8 7 6 5 5 5 5 4 4 3 2 3 2 3 4 4 6 6 5 7 7 5 5 6 6 2 1 2 3 4 4 5
11 11 11 9 8 8 8 6 6 5 6 5 7 7 5 6 4 5 4 5 4 2 3 3 4 4 4 6 5 4 4 6 5 3 5 8 6 4 3 3 4 5 6
11 12 12 11 10 8 9 6 5 7 6 6 8 7 6 5 4 3 4 3 4 3 2 3 3 3 5 6 5 5 4 4 6 5 3 4 10 9 5 4 5 5 6
13 13 12 10 12 9 8 6 3 5 5 6 6 6 5 5 3 3 4 4 4 2 2 2 3 4 4 3 3 3 3 2 4 4 3 1 3 4 10 7 5 5 7
13 13 12 11 11 9 7 5 5 6 4 5 5 5 5 5 5 3 4 5 3 3 2 2 3 1 4 2 3 3 3 3 4 6 4 2 4 1 3 9 7 8 8
13 13 11 10 10 9 7 5 5 5 5 4 4 4 5 4 5 4 4 4 5 4 4 4 3 3 2 3 4 5 3 4 3 4 5 4 4 3 3 1 2 5 10
12 12 12 10 10 9 7 7 6 6 6 5 5 5 5 4 5 4 4 4 4 3 4 2 3 2 3 3 5 5 5 5 6 3 3 1 4 2 2 1 4 3 3
14 12 12 11 10 9 7 5 4 4 5 5 5 4 5 6 5 5 1 2 3 7 4 2 3 1 2 4 4 2 5 6 5 4 3 2 1 1 2 2 2 2 4
14 13 12 11 11 9 8 6 5 3 2 2 3 4 5 5 5 4 5 1 4 4 6 2 3 4 4 3 4 5 4 3 3 4 5 4 3 2 0 2 2 1 3
14 13 12 11 11 11 9 8 10 8 6 5 7 5 5 5 5 5 5 5 4 1 3 4 3 3 7 4 2 5 6 5 2 6 5 5 5 3 3 3 1 3 2
13 13 12 11 10 10 9 6 8 8 6 6 4 4 5 5 5 6 5 4 4 4 3 2 1 4 2 4 4 1 3 2 2 3 4 5 5 2 2 0 2 3 3
13 12 12 13 12 10 9 9 8 4 4 2 5 6 6 6 7 6 6 4 4 3 3 3 2 2 4 4 3 3 4 4 5 2 2 2 1 3 2 3 2 3 3
Wind_Direction
146 126 149 124 109 97 88 83 84 92 87 90 88 90 88 89 90 93 91 99 98 100 99 101 100 98 95 91 92 86 82 77 82 88 89 84 81 80 88 115 135 95 94
137 132 144 126 111 97 102 101 85 79 83 88 88 90 92 92 94 96 96 98 99 103 97 93 94 93 94 90 82 84 87 82 83 95 97 92 76 73 74 67 61 87 93
140 127 147 134 111 105 96 93 98 100 96 90 85 88 93 97 98 101 97 104 100 106 99 96 98 94 92 89 83 83 81 75 72 89 119 90 83 74 75 81 85 82 82
134 141 130 110 113 109 102 97 94 93 96 91 96 95 106 107 106 102 101 105 102 99 106 100 91 87 86 85 80 81 80 76 64 10 48 67 84 84 83 81 86 90 88
129 127 107 120 118 116 115 111 99 102 105 105 97 88 97 116 115 108 110 107 102 96 96 100 93 83 91 85 82 77 79 75 60 67 78 59 72 72 72 77 88 74 62
144 109 126 124 123 112 108 110 107 101 111 110 102 101 101 111 114 108 105 117 97 93 96 93 85 88 87 86 83 80 73 41 52 80 81 79 77 67 70 70 75 73 66
116 124 124 119 120 110 106 105 99 100 99 111 108 108 104 104 94 110 101 91 90 83 81 99 90 92 86 80 83 76 69 39 68 75 78 73 68 58 67 68 71 72 65
125 127 127 112 103 104 105 106 111 111 110 106 110 107 98 98 112 107 106 98 91 87 86 95 93 89 82 81 85 78 58 359 75 76 65 71 58 64 61 60 65 68 67
127 111 134 125 115 103 103 107 107 111 103 101 106 105 100 102 106 114 108 102 97 96 87 87 91 95 88 88 85 87 74 360 78 54 90 78 68 67 65 66 66 66 63
127 102 137 78 125 116 119 106 108 103 96 100 105 112 110 105 102 109 127 103 106 97 86 84 84 103 88 87 91 93 148 217 82 109 80 75 70 62 79 66 62 54 48
120 133 123 111 107 114 109 111 115 109 112 114 115 118 136 116 118 132 80 103 105 101 89 87 84 100 120 118 108 155 242 62 93 64 77 55 73 68 64 62 59 53 45
141 138 104 127 132 118 105 101 124 145 106 103 111 131 119 94 97 91 90 89 101 106 101 101 100 154 242 105 137 205 80 83 74 92 77 59 66 66 63 58 50 41 28
146 123 152 107 130 120 119 142 138 127 132 114 125 128 110 128 136 109 131 143 138 202 130 171 163 111 68 45 71 73 103 125 105 81 91 71 37 70 57 45 31 19 1
141 150 124 123 121 110 140 117 120 119 130 131 112 126 135 125 120 99 96 114 151 113 68 2 71 45 76 98 67 75 80 74 70 79 108 110 55 10 15 355 358 348 331
151 143 132 130 127 128 170 110 99 139 132 114 141 128 121 119 115 118 86 91 78 107 71 55 48 48 118 125 108 90 84 76 76 79 100 134 165 284 320 327 331 321 321
145 144 134 144 139 144 108 117 126 121 116 127 127 118 121 112 129 129 130 119 126 108 77 44 34 80 79 115 115 79 82 97 72 69 88 130 170 209 243 282 296 309 317
147 142 148 147 140 145 133 139 122 154 131 127 112 131 112 127 123 118 112 144 122 111 152 130 146 163 110 120 103 117 116 86 104 97 115 88 152 181 198 244 278 292 300
139 146 160 152 148 155 129 139 134 117 129 128 133 137 130 115 136 194 158 136 111 165 130 99 120 104 91 95 79 81 106 126 103 121 104 97 87 121 175 195 244 274 286
142 151 159 153 155 155 148 142 144 120 142 130 138 135 126 125 126 137 139 118 202 161 150 142 106 20 112 68 174 129 121 124 163 119 105 151 110 283 51 165 209 243 258
154 157 160 163 151 160 153 163 149 143 147 148 144 122 147 139 146 198 130 140 218 168 165 80 6 66 4 32 357 86 89 123 129 123 125 159 113 188 186 319 251 168 211
167 167 164 169 169 173 172 178 162 157 143 151 137 134 152 143 140 173 142 164 208 165 55 148 169 105 100 48 246 132 124 161 153 143 137 137 119 201 56 73 268 351 170
178 182 176 182 176 198 175 186 185 150 161 153 153 165 181 182 168 160 122 150 253 129 153 58 8 149 91 47 8 254 152 158 125 98 104 163 76 145 135 179 5 342 300
179 186 186 183 180 194 190 175 178 129 122 181 137 179 178 203 188 160 176 83 176 248 143 175 77 345 87 78 15 332 198 106 165 134 153 127 181 158 122 204 255 356 330
185 183 183 183 177 183 199 185 187 182 188 184 194 191 179 182 179 199 193 168 198 111 117 137 82 2 308 77 122 71 21 359 6 148 132 121 179 184 68 287 83 103 332
186 186 183 187 184 192 191 189 196 198 173 183 179 190 182 183 191 184 197 176 169 218 118 87 149 5 86 1 46 93 49 109 94 315 121 128 149 118 84 221 13 345 54
186 188 183 183 189 201 204 197 234 183 192 171 185 206 192 196 183 193 177 183 179 166 183 185 169 187 9 17 16 343 29 6 39 23 120 183 32 105 44 69 38 32 33